sat.trackr.live / text

‹ back to catalog

STARLINK-33869

NORAD 63790 · 2025-091R

PAYLOAD ACTIVE UNKNOWN

§ Identity

Operator
Country
US
Launch date
2025-05-02
Launch site
AFETR
Launch vehicle
Mass (kg)
RCS (m²)

Purposes: comms

External: N2YO · Heavens-Above · Gunter

§ Orbital elements

Epoch: 2026-09-20T01:46:16.540320Z

Period
94.27 min
Inclination
43.0040°
Eccentricity
0.0001432
Mean motion
15.27602515 rev/d
Perigee alt
482.0 km
Apogee alt
484.0 km
Semi-major
6,861.1 km
B*
6.0710e-4
RAAN
34.4914°
Arg perigee
272.9996°
Mean anomaly
87.0692°
Rev number
7,858

§ Raw data

STARLINK-338691 63790U 25091R   26263.07380255  .00016493  00000+0  60710-3 0  99902 63790  43.0040  34.4914 0001432 272.9996  87.0692 15.27602515 78581

JSON: /api/v1/satellites/63790 · /tle

For live sub-satellite position, see the globe view (requires WebGL).

§ Visibility from observer

Set your observer location to see the next 7 days of passes ≥ 10°. The values pass through the URL so the page stays shareable.

No JS? Fill the form by hand. The geolocation button needs JavaScript.